Regional Weather Roundup
Issued by NWS

Home | Current Version | Previous Version | Graphics & Text | Print | Product List | Glossary On
Versions: 1 2 3 4 5 6 7 8 9 10 11 12 13 14 15 16 17 18 19 20 21 22 23 24 25 26 27 28 29 30 31 32 33 34 35 36 37 38 39 40 41 42 43 44 45 46 47 48 49 50
000
ASUS45 KABQ 240810
RWRNM
NEW MEXICO REGIONAL WEATHER ROUNDUP
NATIONAL WEATHER SERVICE ALBUQUERQUE NM
100 AM MST TUE JAN 24 2017

NOTE: "FAIR" MEANS FEW OR NO CLOUDS BELOW 12,000 FEET AGL WITH NO
       SIGNIFICANT WEATHER OR OBSTRUCTIONS TO VISION.

      THIS PRODUCT IS RELEASED AS TWO VERSIONS.  ONE VERSION NEAR
      THE TOP OF THE HOUR CONTAINING PRELIMINARY DATA FROM ALBUQUERQUE
      AND OTHER STATIONS.  A FINAL VERSION WITH ADDITIONAL DATA IS
      ISSUED ABOUT 10 MINUTES AFTER THE HOUR.

NMZ501-503-504-510>518-240900-
NORTHWEST PLATEAU/NORTHCENTRAL MOUNTAINS

CITY           SKY/WX    TMP DP  RH WIND       PRES   REMARKS
FARMINGTON     LGT SNOW  30  29  96 SE6       29.61F FOG     WCI  24
LOS ALAMOS     CLOUDY    32  25  75 CALM      29.62F
SANTA FE       FLURRIES  33  29  85 SW8       29.63S WCI  26
TAOS           CLOUDY    30  19  64 W8        29.61S WCI  23
ANGEL FIRE     SNOW      26  24  90 SW14G25   29.60R VSB 1/2 WCI  15

$$
NMZ402-403-502-505>509-240900-
WESTCENTRAL MOUNTAINS/SOUTHWEST MOUNTAINS

CITY           SKY/WX    TMP DP  RH WIND       PRES   REMARKS
GALLUP         LGT SNOW  30  28  92 SW12      29.65S FOG     WCI  20
GRANTS         LGT SNOW  30  30  99 S3        29.67S
SILVER CITY    MOCLDY    43  32  64 W16G22    29.74S

$$
NMZ407-409-411-412-240900-
SOUTHERN DESERTS

CITY           SKY/WX    TMP DP  RH WIND       PRES   REMARKS
DEMING         FAIR      48  30  49 SW14G24   29.71F
LAS CRUCES     FAIR      49  32  52 W8        29.72S
HOLLOMAN AFB   FAIR      49  32  52 S15       29.71F
ALAMOGORDO     FAIR      52  32  46 S18       29.70S
T OR C         FAIR      50  25  37 SW23G38   29.63S

$$
NMZ519>523-240900-
CENTRAL VALLEYS/CENTRAL HIGHLANDS

CITY           SKY/WX    TMP DP  RH WIND       PRES   REMARKS
ALBUQUERQUE    MOCLDY    38  33  82 N10       29.65S WCI  31
DOUBLE EAGLE   CLOUDY    34  32  95 W13       29.65S WCI  25
MORIARTY ARPT  DRIZZLE   38  31  74 NW12      29.63S WCI  31
CLINES CORNERS FLURRIES  33  29  85 NW18G28   29.61R WCI  22
BELEN          CLOUDY    40  32  72 NW16      29.65R WCI  31
SOCORRO        MOCLDY    45  32  60 S6        29.62S

$$
NMZ524>526-539-540-240900-
SOUTHCENTRAL MOUNTAINS

CITY           SKY/WX    TMP DP  RH WIND       PRES   REMARKS
RUIDOSO        FAIR      43  25  49 SW33G48   29.65F

$$
NMZ527>531-240900-
NORTHEAST HIGHLANDS/NORTHEAST PLAINS

CITY           SKY/WX    TMP DP  RH WIND       PRES   REMARKS
LAS VEGAS      FAIR      36  29  75 SW18      29.56R WCI  26
RATON          CLOUDY    35  32  88 SW12      29.52R WCI  27
CLAYTON        FAIR      38  32  79 SW10      29.49F WCI  31

$$
NMZ532>537-240900-
EASTCENTRAL PLAINS

CITY           SKY/WX    TMP DP  RH WIND       PRES   REMARKS
TUCUMCARI      FAIR      48  29  47 SW20      29.53F
CANNON AFB     FAIR      40  27  60 SW10      29.60F WCI  33
CLOVIS AIRPORT FAIR      41  27  56 SW12      29.60F

$$
NMZ028-029-538-240900-
SOUTHEAST PLAINS

CITY           SKY/WX    TMP DP  RH WIND       PRES   REMARKS
ROSWELL        FAIR      53  26  35 SW16      29.60F
ARTESIA        FAIR      54  28  37 SW17      29.63F
CARLSBAD       FAIR      50  29  44 SW14      29.64F


$$



USA.gov is the U.S. government's official web portal to all federal, state and local government web resources and services.